This is the latest recevied weather packets stored in our database for station/object E22ZMG-2. If no packets are shown the sender has not sent any weather packets the latest 10 day(s).
| Time | Temp. | Humidity | Pressure | Rain* | Wind** | Luminosity | Snow |
|---|---|---|---|---|---|---|---|
| 1777264895 | 31.11° C | 55% | 927 hPa | - | - | 0 W/m² | - |
| 1777264270 | 31.11° C | 56% | 927 hPa | - | - | 0 W/m² | - |
| 1777263646 | 31.11° C | 55% | 927 hPa | - | - | 0 W/m² | - |
| 1777263022 | 30.56° C | 56% | 927 hPa | - | - | 0 W/m² | - |
| 1777262398 | 30.56° C | 57% | 927 hPa | - | - | 0 W/m² | - |
| 1777261774 | 30° C | 57% | 927 hPa | - | - | 0 W/m² | - |
| 1777261150 | 30° C | 58% | 927 hPa | - | - | 0 W/m² | - |
| 1777260525 | 30° C | 58% | 927 hPa | - | - | 0 W/m² | - |
| 1777259901 | 30.56° C | 57% | 927 hPa | - | - | 0 W/m² | - |
| 1777259277 | 30° C | 59% | 927 hPa | - | - | 0 W/m² | - |
| 1777258653 | 30° C | 59% | 927 hPa | - | - | 0 W/m² | - |
| 1777258029 | 30° C | 56% | 927 hPa | - | - | 0 W/m² | - |
| 1777257405 | 29.44° C | 55% | 927 hPa | - | - | 0 W/m² | - |
| 1777256781 | 29.44° C | 58% | 927 hPa | - | - | 0 W/m² | - |
| 1777256156 | 29.44° C | 63% | 927 hPa | - | - | 0 W/m² | - |
| 1777255533 | 28.89° C | 63% | 927 hPa | - | - | 0 W/m² | - |
| 1777255190 | 28.33° C | 63% | 927 hPa | - | - | 0 W/m² | - |
| 1777254566 | 28.89° C | 63% | 927 hPa | - | - | 0 W/m² | - |
| 1777253942 | 28.33° C | 64% | 927 hPa | - | - | 0 W/m² | - |
| 1777253318 | 27.78° C | 65% | 927 hPa | - | - | 0 W/m² | - |
| 1777252694 | 27.78° C | 68% | 927 hPa | - | - | 0 W/m² | - |
| 1777252070 | 27.78° C | 68% | 927 hPa | - | - | 0 W/m² | - |
| 1777251446 | 27.22° C | 69% | 927 hPa | - | - | 0 W/m² | - |
| 1777250822 | 27.22° C | 70% | 927 hPa | - | - | 0 W/m² | - |
| 1777250197 | 26.67° C | 71% | 927 hPa | - | - | 0 W/m² | - |
* Rain since midnight (hover to see other rain measurements)
** Current wind speed in m/s (hover to see current wind gust speed)